sat.trackr.live / text

‹ back to catalog

STARLINK-37609

NORAD 69036 · 2026-101M

PAYLOAD ACTIVE UNKNOWN

§ Identity

Operator
Country
US
Launch date
2026-05-06
Launch site
AFWTR
Launch vehicle
Mass (kg)
RCS (m²)

Purposes: comms

External: N2YO · Heavens-Above · Gunter

§ Orbital elements

Epoch: 2026-05-25T04:00:03.998880Z

Period
92.05 min
Inclination
97.2852°
Eccentricity
0.0001605
Mean motion
15.64422299 rev/d
Perigee alt
373.8 km
Apogee alt
376.0 km
Semi-major
6,753.0 km
B*
-2.2866e-2
RAAN
359.9121°
Arg perigee
92.9626°
Mean anomaly
353.6569°
Rev number
422

§ Raw data

STARLINK-376091 69036U 26101M   26145.16671295 -.01934891  00000+0 -22866-1 0  99902 69036  97.2852 359.9121 0001605  92.9626 353.6569 15.64422299  4224

JSON: /api/v1/satellites/69036 · /tle

For live sub-satellite position, see the globe view (requires WebGL).

§ Visibility from observer

Set your observer location to see the next 7 days of passes ≥ 10°. The values pass through the URL so the page stays shareable.

No JS? Fill the form by hand. The geolocation button needs JavaScript.